Weather History for KESF - May, 2013

Change the Weather History Date:

Friday, May 24, 2013

  Actual Average Record
Temperature  
Mean Temperature 76 °F -  
Max Temperature 89 °F 87 °F 95 °F (2005)
Min Temperature 64 °F 65 °F 47 °F (1967)
Cooling Degree Days 11    
Growing Degree Days 26 (Base 50)    
Moisture  
Dew Point 67 °F    
Average Humidity 75    
Maximum Humidity 93    
Minimum Humidity 53    
Precipitation  
Precipitation 0.00 in - - ()
Sea Level Pressure  
Sea Level Pressure 30.12 in    
Wind  
Wind Speed 2 mph (ENE)    
Max Wind Speed 12 mph    
Max Gust Speed -    
Visibility 10 miles    
Events      
Averages and records for this station are not official NWS values.
T = Trace of Precipitation, MM = Missing Value Source: NWS Daily Summary

Daily Weather History Graph

Daily Weather History Graph

Search for Another Location

Airport or City:

Trip Planner

Search our weather history database for the weather conditions in past years. The results will help you decide how hot, cold, wet, or windy it might be!

Date:

Astronomy

May. 24, 2013 Rise Set
Actual Time 6:07 AM CDT 8:04 PM CDT
Civil Twilight 5:40 AM CDT 8:31 PM CDT
Nautical Twilight 5:07 AM CDT 9:04 PM CDT
Astronomical Twilight 4:32 AM CDT 9:39 PM CDT
Moon 7:48 PM CDT (5/24) 5:37 AM CDT (5/24)
Length of Visible Light 14h 50m
Length of Day
13h 56m
Full, 100% of the Moon is Illuminated
May 24
Full
May 24
Full
May 31
Last Quarter
Jun 8
New
Jun 16
First Quarter

Hourly Weather History & Observations

Time (CDT) Temp. Heat Index Dew Point Humidity Pressure Visibility Wind Dir Wind Speed Gust Speed Precip Events Conditions
12:53 AM 68.0 °F - 64.0 °F 87% 30.07 in 10.0 mi Calm Calm - N/A   Clear
1:53 AM 66.0 °F - 64.0 °F 93% 30.05 in 10.0 mi Calm Calm - N/A   Clear
2:53 AM 66.0 °F - 64.0 °F 93% 30.05 in 10.0 mi Calm Calm - N/A   Clear
3:53 AM 64.9 °F - 63.0 °F 93% 30.04 in 9.0 mi Calm Calm - N/A   Clear
4:53 AM 64.9 °F - 63.0 °F 93% 30.06 in 8.0 mi Calm Calm - N/A   Clear
5:53 AM 64.0 °F - 62.1 °F 93% 30.09 in 7.0 mi ESE 3.5 mph - N/A   Clear
6:53 AM 66.0 °F - 63.0 °F 90% 30.12 in 8.0 mi Calm Calm - N/A   Clear
7:53 AM 72.0 °F - 66.9 °F 84% 30.13 in 10.0 mi Calm Calm - N/A   Clear
8:53 AM 77.0 °F - 68.0 °F 74% 30.16 in 10.0 mi Calm Calm - N/A   Clear
9:53 AM 81.0 °F 83.8 °F 68.0 °F 65% 30.16 in 10.0 mi NE 4.6 mph - N/A   Scattered Clouds
10:53 AM 82.9 °F 85.8 °F 68.0 °F 60% 30.16 in 10.0 mi East 6.9 mph - N/A   Clear
11:53 AM 84.9 °F 89.4 °F 70.0 °F 61% 30.17 in 10.0 mi Variable 4.6 mph - N/A   Clear
12:53 PM 88.0 °F 92.1 °F 69.1 °F 53% 30.17 in 10.0 mi Variable 5.8 mph - N/A   Clear
1:53 PM 88.0 °F 92.9 °F 70.0 °F 55% 30.15 in 10.0 mi NE 9.2 mph - N/A   Clear
2:53 PM 88.0 °F 92.9 °F 70.0 °F 55% 30.14 in 10.0 mi NE 8.1 mph - N/A   Clear
3:53 PM 87.1 °F 92.0 °F 70.0 °F 57% 30.13 in 10.0 mi ENE 11.5 mph - N/A   Clear
4:53 PM 86.0 °F 90.1 °F 69.1 °F 57% 30.11 in 10.0 mi NE 8.1 mph - N/A   Clear
5:53 PM 84.0 °F 87.0 °F 68.0 °F 58% 30.11 in 10.0 mi ENE 5.8 mph - N/A   Clear
6:53 PM 82.0 °F 84.9 °F 68.0 °F 62% 30.11 in 10.0 mi NE 5.8 mph - N/A   Clear
7:53 PM 79.0 °F - 69.1 °F 72% 30.13 in 10.0 mi Calm Calm - N/A   Clear
8:53 PM 77.0 °F - 68.0 °F 74% 30.13 in 10.0 mi ENE 3.5 mph - N/A   Clear
9:53 PM 73.0 °F - 68.0 °F 84% 30.14 in 10.0 mi NE 3.5 mph - N/A   Clear
10:53 PM 71.1 °F - 68.0 °F 90% 30.16 in 10.0 mi Calm Calm - N/A   Clear
11:53 PM 71.1 °F - 66.9 °F 87% 30.16 in 10.0 mi Calm Calm - N/A   Clear